Location: Navajo
(48.7922°N, 105.0603°W)
Time: 08:17:53
(UTC+00:00)

DUCHIFAT 1 - Pass Details

Date: 26 June 2022
Orbit: 580 x 596 km, 98.0° (Epoch: 07 August)

Event Time Altitude Azimuth Distance (km) Brightness Sun altitude
Rises 08:13:07 0° 34° (NE) 2,838 ? -16.2°
Reaches altitude 10° 08:16:54 10° 69° (ENE) 1,933 ? -16.0°
Maximum altitude 08:18:12 11° 87° (E) 1,853 ? -15.9°
Drops below altitude 10° 08:19:29 10° 105° (ESE) 1,931 ? -15.9°
Enters shadow 08:22:14 - 134° (SE) 2,523 ? -15.7°
